Tracking 25710 objects as of 5-Jul-2022
HD Live streaming from Space Station
objects crossing your sky now

FENGYUN 1C DEB

Track FENGYUN 1C DEB now!
10-day predictions


NORAD ID: 36153
Int'l Code: 1999-025DSA
Perigee: 769.4 km
Apogee: 835.8 km
Inclination: 98.7 °
Period: 100.8 minutes
Semi major axis: 7173 km
RCS: 0.0062 m2 (small)
Launch date: May 10, 1999
Source: People's Republic of China (PRC)
Launch site: Taiyaun Space Center, China (TSC)

Note: This is SATELLITE DEBRIS
aabbcc
Your satellite tracking list
Your tracking list is empty




NASA's NSSDC Master Catalog

Two Line Element Set (TLE):
1 36153U 99025DSA 22185.69864012  .00001879  00000-0  75308-3 0  9998
2 36153  98.6607 257.0364 0046232 182.3271 336.2589 14.28887581469078
Source of the keplerian elements: AFSPC